Wetbulb
59.60 59.50 59.20 58.70 58.18 57.90 57.53 57.24 56.64 56.68 56.79 56.96 56.87 57.25 56.76 55.98 55.10 52.89 47.28 52.52 53.74 57.65 57.49 51.15 50.86 49.58 48.53 47.96 47.58 46.84 44.23 40.76 40.85 41.63 43.48 46.37 45.01 48.15 48.35 47.11 48.85 49.75 50.60 49.66 52.80
60.03 60.15 60.11 59.58 58.68 58.14 57.66 57.29 56.59 56.57 56.78 56.50 56.58 57.03 55.98 55.53 52.11 51.23 56.83 58.71 57.27 57.92 49.42 50.41 47.85 48.35 45.80 45.20 45.70 45.65 43.39 41.62 44.28 45.08 42.82 44.11 44.22 44.99 45.70 45.36 46.76 47.61 50.42 52.59 53.64
60.37 60.09 60.19 59.85 59.24 58.64 57.89 57.12 56.53 56.80 56.61 56.23 56.46 56.63 55.09 54.65 51.23 50.88 59.06 57.78 57.70 56.37 50.77 51.61 48.28 46.21 43.86 44.20 42.87 42.19 42.71 43.11 43.18 44.13 43.13 43.82 43.36 44.59 44.28 43.73 46.29 45.34 48.01 50.13 50.14
59.85 59.79 59.93 59.84 59.64 58.93 58.02 57.09 56.93 56.82 56.27 56.04 56.51 55.87 55.00 52.65 45.74 52.41 59.45 58.28 58.31 52.98 49.92 47.02 45.34 43.09 41.65 41.07 41.97 40.26 41.34 42.11 42.87 43.08 42.21 42.49 43.82 43.43 44.47 44.56 47.62 48.25 48.33 47.43 45.65
58.84 59.04 59.37 59.82 59.76 59.00 58.13 57.30 57.04 56.53 55.70 55.59 56.03 55.51 51.77 51.71 52.51 54.80 59.08 56.18 51.65 51.01 46.13 45.67 43.93 42.76 40.86 40.99 41.94 40.02 41.16 42.55 43.37 42.54 42.37 42.27 42.44 42.69 42.72 45.27 46.55 46.07 45.05 43.64 43.07
58.64 58.52 58.83 59.33 59.30 58.78 58.22 57.42 56.98 56.31 55.23 55.42 55.66 54.17 50.01 48.43 54.10 52.20 51.84 51.34 50.26 48.52 45.68 45.72 43.91 44.30 42.60 41.67 41.34 41.88 41.71 42.00 42.32 43.05 42.15 41.46 42.05 42.58 42.10 45.01 43.16 42.39 41.05 40.85 40.36
56.95 57.63 58.25 58.50 58.63 58.47 58.27 57.67 57.01 56.06 54.82 54.93 55.11 50.00 46.65 51.60 52.72 52.62 52.43 50.25 49.52 47.66 45.96 46.52 45.90 44.40 43.71 41.43 43.19 42.12 40.11 41.42 42.11 42.63 42.53 42.61 41.18 37.29 42.85 43.71 41.36 40.47 39.96 39.58 39.27
56.41 55.88 55.93 57.13 57.26 57.44 57.46 57.24 56.92 56.25 54.90 54.56 53.81 48.66 48.19 56.00 53.97 53.72 52.59 52.19 49.82 48.67 47.63 47.94 46.74 44.78 43.24 43.63 41.03 39.10 38.75 37.19 41.51 42.55 42.03 41.90 37.92 39.52 42.62 42.03 39.66 39.37 38.76 38.26 37.80
56.18 55.88 55.58 55.72 56.23 56.21 56.19 56.78 56.44 55.48 54.65 54.84 49.05 47.69 48.29 56.83 52.07 52.99 53.94 51.85 47.76 47.26 47.46 47.30 46.08 41.43 41.92 38.77 37.14 36.40 34.98 34.84 37.88 40.86 41.35 41.58 38.60 39.33 42.41 41.11 38.64 38.30 37.93 38.08 37.97
55.76 55.70 56.08 55.82 55.76 55.15 55.23 54.96 54.96 53.75 52.58 50.54 48.91 46.95 51.52 50.88 52.12 48.47 51.00 48.66 45.09 45.25 43.95 43.47 40.80 38.14 37.64 37.23 32.72 32.79 33.18 33.77 34.67 39.19 39.94 39.25 39.48 38.05 39.08 39.22 37.23 37.04 36.85 36.82 36.84
55.52 56.16 56.02 55.96 55.65 53.88 53.65 52.75 50.24 47.31 47.17 48.48 47.96 48.74 49.62 51.78 53.08 46.82 48.89 45.98 45.53 44.17 39.30 39.51 37.50 34.59 36.22 36.55 36.58 35.49 34.07 33.21 35.75 39.35 37.73 38.47 38.10 38.30 37.35 36.97 36.12 35.94 35.84 36.01 35.85
55.70 55.62 55.76 55.92 55.11 54.18 54.98 51.15 49.52 46.97 44.35 47.75 49.35 48.22 50.39 51.79 48.54 50.76 47.19 43.99 42.14 39.18 38.21 37.27 35.41 39.00 38.48 37.03 36.23 35.06 33.23 33.58 36.51 38.15 37.44 37.68 36.82 36.86 37.08 35.73 35.86 34.85 34.50 34.65 35.33
54.91 55.48 55.30 55.08 54.21 53.55 52.41 51.81 49.49 47.99 42.41 44.57 47.20 47.31 49.11 50.61 47.67 48.97 45.71 43.47 40.53 37.54 36.46 37.27 38.80 38.09 37.63 36.17 34.69 34.54 33.39 33.45 34.69 37.03 36.66 35.43 35.25 34.95 35.34 35.76 35.15 34.57 34.30 33.85 33.47
52.89 54.63 53.52 53.63 51.77 52.04 50.63 53.83 51.14 50.25 36.74 36.93 41.41 45.73 48.02 48.98 44.54 51.52 50.02 45.45 41.04 40.38 36.65 36.57 39.00 36.47 36.00 35.54 36.31 32.48 37.49 36.69 34.97 33.17 30.79 34.52 28.61 34.21 34.96 35.09 35.37 35.01 34.41 33.54 32.84
52.10 53.62 53.03 54.06 49.67 49.34 51.14 53.92 50.14 46.49 21.76 37.57 40.67 50.01 48.25 45.13 43.46 44.45 49.48 46.39 42.58 38.66 39.07 36.79 36.34 35.32 34.64 36.36 37.94 35.72 38.06 35.84 34.60 33.12 30.93 31.19 30.17 32.19 33.22 34.14 36.00 35.92 34.76 33.20 32.58
51.41 53.61 52.98 51.09 50.01 50.19 51.85 51.38 47.08 32.88 21.23 34.18 41.99 41.73 42.50 43.75 41.50 43.47 44.94 46.80 45.22 39.22 37.93 38.33 40.23 38.62 38.83 38.39 38.63 38.16 35.75 33.65 32.03 31.54 26.66 32.05 31.18 32.70 33.15 35.11 34.56 35.56 34.45 32.67 31.82
51.34 53.04 52.96 51.94 48.65 49.52 49.94 47.68 33.84 26.66 36.70 32.83 35.67 41.43 40.16 39.50 39.31 38.71 40.07 36.81 36.75 33.13 33.42 36.14 37.46 39.06 39.52 36.65 37.01 35.82 33.41 27.86 26.20 25.01 25.37 30.02 28.19 32.88 34.80 35.74 36.67 36.35 34.21 32.31 31.16
51.20 52.00 53.03 52.03 50.04 49.45 49.63 39.77 26.37 31.86 32.39 38.72 36.21 39.27 36.78 38.04 36.62 35.24 36.48 33.56 35.18 34.47 31.80 30.68 28.87 34.94 37.38 38.31 35.62 32.92 33.51 27.76 20.53 21.97 26.50 29.16 26.77 32.97 34.88 35.80 35.38 34.83 34.00 31.80 30.62
50.98 50.58 49.37 50.52 49.38 49.80 43.95 31.73 30.65 32.72 36.72 35.56 35.44 33.23 34.16 35.76 36.27 34.53 34.62 33.97 35.72 35.91 33.06 29.05 29.46 36.35 36.56 36.92 37.28 31.76 29.91 33.73 29.03 27.12 24.58 29.53 31.38 33.69 33.37 33.50 33.60 33.60 32.66 31.74 29.79
46.51 46.20 46.24 50.65 49.90 47.32 39.44 33.51 34.73 38.39 39.16 38.15 32.13 34.33 30.88 32.62 33.40 33.01 31.92 35.79 35.20 36.64 39.20 34.17 29.18 34.04 35.05 37.37 35.81 34.92 36.14 28.86 29.10 21.51 19.92 27.05 28.36 29.93 31.85 33.53 33.78 33.32 32.82 31.14 29.07
44.96 39.90 45.49 49.84 48.89 41.62 32.89 34.00 36.72 40.42 40.49 37.32 34.97 34.21 33.54 32.24 34.11 32.15 33.41 35.83 36.93 34.91 37.28 35.11 33.70 30.88 34.20 32.94 32.34 31.95 30.78 30.29 30.92 28.47 23.20 21.83 27.49 34.48 33.82 34.54 34.66 34.59 33.31 30.90 28.79
42.35 33.29 45.22 49.03 37.10 35.29 34.00 37.57 39.98 38.87 40.96 39.45 39.31 38.33 36.51 34.70 32.78 32.45 32.80 34.97 36.22 36.64 33.59 35.83 33.29 27.57 30.64 33.47 34.84 33.47 32.74 32.66 27.87 26.05 26.92 25.72 26.39 33.03 33.49 33.18 34.58 33.65 32.15 30.30 28.74
37.72 36.23 44.34 45.64 31.07 31.67 36.52 36.96 38.62 37.85 38.39 38.06 37.41 39.08 39.61 35.26 32.52 34.26 34.61 35.75 36.55 35.78 33.96 35.26 31.01 26.46 27.46 31.10 32.92 30.99 31.75 31.69 31.09 29.65 26.57 23.67 27.00 31.74 31.78 32.14 33.08 32.20 30.88 29.44 27.71
36.12 30.73 36.94 39.11 38.31 34.94 34.28 34.26 34.44 39.48 38.47 39.46 38.58 39.87 37.04 35.37 36.64 32.99 32.39 34.71 36.93 37.61 38.37 38.48 31.30 30.09 27.20 29.58 31.40 28.42 30.30 31.21 31.02 26.51 27.20 27.59 29.08 32.90 34.16 32.13 31.78 30.69 30.41 28.66 27.71
37.08 32.50 34.10 29.42 33.17 34.91 35.05 34.48 33.65 33.75 38.68 39.54 36.98 37.98 35.82 32.44 32.19 31.70 32.68 33.15 35.15 36.61 34.57 36.21 29.78 26.69 28.59 30.04 30.54 29.54 29.50 30.70 28.28 30.29 27.04 28.89 29.24 32.26 34.23 34.06 33.67 31.97 28.76 26.84 25.92
32.65 33.23 33.04 31.56 34.64 33.64 34.56 32.48 32.49 34.42 35.69 34.53 34.73 37.42 36.69 33.91 34.73 31.21 32.63 31.97 32.55 33.37 32.22 32.25 27.44 24.85 22.15 28.40 28.89 26.73 28.85 29.48 28.99 29.92 28.60 27.88 27.85 34.84 35.31 32.48 30.62 29.29 27.80 26.87 25.89
39.24 38.12 34.93 31.94 32.50 30.87 31.37 33.24 32.93 35.71 36.22 38.17 37.53 36.33 35.27 36.56 38.89 39.48 39.08 38.01 36.72 33.83 31.43 31.40 28.52 28.07 26.02 27.61 27.58 24.37 27.48 27.53 29.84 30.10 30.04 25.30 32.00 33.16 30.79 30.34 29.83 28.40 28.35 27.26 25.99
MSLP
1020.08 1019.98 1020.19 1020.21 1020.42 1020.48 1020.42 1020.19 1020.09 1019.91 1019.64 1019.25 1018.49 1018.09 1017.44 1016.93 1016.07 1015.66 1015.52 1015.52 1015.36 1014.95 1014.67 1014.36 1013.96 1013.84 1013.57 1013.87 1014.10 1014.34 1014.48 1014.64 1014.79 1014.55 1014.27 1013.93 1013.47 1012.98 1012.96 1012.81 1012.94 1013.15 1013.66 1015.09 1015.35
1019.72 1019.89 1020.02 1020.02 1020.05 1020.24 1020.27 1020.13 1020.04 1019.82 1019.57 1019.41 1018.69 1018.05 1017.53 1017.10 1016.63 1015.78 1015.20 1015.13 1015.23 1015.00 1014.69 1014.48 1014.31 1014.03 1014.06 1014.37 1014.42 1014.39 1014.85 1015.00 1015.07 1014.95 1014.75 1014.38 1014.03 1013.75 1013.47 1013.65 1013.66 1014.01 1014.66 1016.01 1016.12
1019.42 1019.67 1019.78 1019.72 1019.90 1019.85 1020.20 1020.00 1019.98 1019.94 1019.67 1019.45 1019.00 1018.27 1017.55 1017.12 1016.77 1015.57 1015.26 1015.16 1015.16 1015.05 1014.95 1014.76 1014.55 1014.33 1014.50 1014.84 1015.00 1015.23 1014.95 1015.15 1015.17 1015.17 1015.15 1014.69 1014.35 1014.29 1014.39 1014.52 1015.05 1015.60 1016.60 1017.20 1017.45
1019.28 1019.47 1019.57 1019.53 1019.61 1019.72 1019.87 1019.97 1019.82 1019.87 1019.87 1019.47 1019.23 1018.52 1017.49 1017.15 1016.78 1015.51 1015.27 1015.11 1015.05 1014.88 1014.86 1014.83 1014.68 1014.75 1014.99 1015.31 1015.48 1015.40 1015.54 1015.38 1015.20 1015.28 1015.28 1014.87 1014.69 1014.74 1015.08 1016.72 1017.08 1017.42 1018.07 1018.61 1018.91
1018.95 1019.18 1019.49 1019.41 1019.46 1019.54 1019.63 1019.71 1019.71 1019.68 1019.81 1019.64 1019.23 1018.72 1017.54 1017.39 1016.16 1015.40 1015.24 1015.12 1015.02 1014.99 1015.20 1015.09 1015.19 1015.23 1015.37 1015.62 1015.78 1015.72 1015.66 1015.59 1015.26 1015.16 1015.11 1015.02 1014.93 1015.28 1016.73 1017.86 1018.28 1018.66 1018.88 1019.64 1020.33
1018.62 1018.94 1018.94 1019.04 1019.14 1019.40 1019.34 1019.51 1019.60 1019.61 1019.66 1019.67 1019.37 1018.91 1018.36 1017.53 1015.44 1015.53 1015.43 1015.23 1015.26 1015.15 1015.51 1015.35 1015.48 1015.58 1015.67 1015.78 1015.91 1016.13 1016.08 1015.63 1015.14 1014.91 1014.93 1015.02 1015.19 1015.74 1018.12 1018.73 1019.15 1019.79 1020.48 1021.15 1021.69
1018.51 1018.79 1018.81 1018.84 1018.78 1018.96 1019.04 1019.25 1019.31 1019.52 1019.57 1019.58 1019.45 1019.28 1018.82 1016.57 1015.51 1015.68 1015.57 1015.59 1015.52 1015.32 1015.51 1015.46 1015.73 1015.75 1015.98 1016.15 1016.21 1016.12 1015.96 1015.50 1015.32 1015.12 1015.02 1015.01 1015.54 1017.50 1018.92 1019.41 1019.91 1020.87 1021.68 1022.28 1022.81
1018.50 1018.60 1018.60 1018.60 1018.75 1018.60 1018.70 1018.99 1019.13 1019.26 1019.58 1019.57 1019.40 1019.51 1017.83 1015.40 1015.46 1015.54 1015.52 1015.61 1015.66 1015.59 1015.61 1015.56 1015.67 1015.91 1016.10 1016.56 1016.75 1016.57 1016.37 1016.03 1015.64 1015.57 1015.76 1015.76 1016.53 1018.43 1019.63 1020.02 1020.71 1021.53 1022.50 1023.13 1023.63
1018.12 1018.45 1018.54 1018.63 1018.59 1018.52 1018.44 1018.76 1018.90 1019.12 1019.41 1019.61 1019.34 1019.47 1016.81 1015.22 1015.29 1015.01 1015.19 1015.30 1015.55 1015.66 1015.73 1015.73 1016.01 1016.64 1016.76 1016.91 1017.30 1017.45 1016.90 1016.62 1016.15 1016.14 1016.10 1016.36 1017.07 1018.96 1019.89 1020.64 1021.28 1022.07 1022.73 1023.31 1023.80
1017.56 1018.03 1018.28 1018.24 1018.48 1018.48 1018.68 1018.71 1019.02 1019.21 1019.35 1019.17 1019.42 1019.30 1016.42 1015.45 1015.08 1015.05 1015.12 1015.18 1015.53 1015.75 1015.99 1016.37 1016.89 1017.24 1017.46 1017.32 1017.56 1017.73 1017.66 1017.41 1016.85 1016.61 1016.60 1016.87 1017.39 1019.10 1020.38 1021.13 1022.03 1022.68 1023.20 1023.62 1023.97
1017.12 1017.58 1017.74 1018.05 1018.29 1018.53 1019.03 1019.09 1019.38 1019.43 1018.98 1018.09 1017.98 1017.14 1016.03 1015.45 1015.23 1014.93 1014.95 1015.21 1015.71 1016.07 1016.50 1017.00 1017.18 1017.26 1017.56 1017.73 1017.90 1018.11 1018.17 1017.98 1017.65 1017.09 1017.49 1017.15 1017.72 1018.99 1020.67 1021.64 1022.34 1022.98 1023.52 1023.91 1024.21
1016.97 1016.95 1017.23 1017.82 1018.26 1018.44 1018.60 1018.42 1018.39 1018.57 1017.90 1017.31 1017.07 1016.83 1016.26 1016.04 1015.81 1015.09 1015.04 1015.53 1015.91 1016.44 1016.99 1017.49 1017.09 1016.77 1017.35 1017.71 1017.99 1018.25 1018.27 1017.96 1017.65 1017.29 1017.54 1017.24 1017.75 1019.10 1020.46 1021.63 1022.50 1023.24 1023.88 1024.26 1024.48
1016.43 1016.82 1016.84 1017.35 1017.85 1018.56 1018.71 1017.90 1017.92 1017.85 1017.80 1016.52 1015.92 1015.37 1015.28 1015.75 1015.03 1014.53 1014.97 1015.35 1015.95 1016.79 1017.10 1017.21 1017.05 1016.87 1017.16 1017.59 1018.02 1018.25 1018.14 1018.02 1017.87 1017.44 1017.35 1017.41 1017.30 1018.66 1020.25 1021.34 1022.41 1023.26 1023.96 1024.50 1024.88
1016.61 1016.72 1016.70 1017.10 1018.46 1018.17 1018.11 1017.74 1017.68 1017.84 1017.78 1015.80 1015.35 1014.40 1014.50 1014.90 1014.65 1013.80 1014.21 1014.82 1015.82 1016.48 1017.43 1017.27 1016.91 1017.09 1017.31 1017.32 1017.77 1017.98 1017.61 1017.75 1017.86 1017.90 1017.56 1017.81 1017.04 1017.90 1019.46 1020.50 1021.56 1022.57 1023.48 1024.26 1024.84
1016.17 1016.58 1016.80 1016.54 1017.42 1017.51 1017.40 1017.24 1017.84 1018.16 1017.43 1014.87 1014.29 1014.25 1014.18 1014.67 1014.17 1014.14 1014.22 1014.70 1015.13 1016.16 1017.14 1016.90 1016.79 1016.91 1016.98 1017.02 1017.28 1017.47 1017.58 1017.72 1017.74 1017.86 1018.06 1018.03 1018.11 1017.45 1018.97 1019.59 1020.30 1021.74 1022.99 1024.05 1024.76
1016.17 1016.43 1016.48 1017.19 1017.08 1017.11 1017.25 1017.41 1017.91 1018.76 1016.16 1014.44 1014.08 1014.03 1014.54 1014.79 1014.26 1014.23 1014.55 1014.98 1015.50 1016.30 1016.77 1016.84 1016.81 1016.64 1016.33 1016.60 1017.03 1017.26 1017.59 1018.01 1018.39 1018.30 1017.81 1017.34 1017.77 1016.22 1018.02 1018.64 1019.80 1021.22 1022.76 1024.08 1024.88
1016.09 1016.32 1016.27 1016.33 1016.95 1016.84 1017.16 1017.88 1018.77 1017.41 1014.92 1014.53 1014.15 1014.04 1014.21 1014.53 1014.74 1014.31 1014.71 1015.33 1015.71 1016.48 1016.71 1016.80 1016.58 1016.36 1016.22 1016.64 1017.16 1017.38 1017.79 1018.11 1018.27 1018.23 1017.51 1017.57 1017.86 1016.70 1017.76 1018.91 1019.84 1020.95 1022.65 1024.06 1025.01
1016.00 1016.13 1015.97 1016.05 1016.35 1016.75 1017.19 1018.23 1017.47 1015.19 1014.78 1014.01 1013.83 1014.35 1014.25 1014.21 1014.60 1014.67 1015.04 1015.45 1015.59 1015.75 1016.19 1016.32 1016.43 1016.08 1016.03 1016.15 1016.79 1017.38 1017.73 1018.06 1017.82 1017.96 1017.67 1018.04 1017.12 1016.78 1018.12 1019.20 1020.44 1021.57 1022.88 1024.16 1024.95
1015.86 1016.23 1015.95 1016.09 1016.22 1016.67 1017.21 1017.08 1015.28 1014.70 1014.33 1013.82 1013.86 1014.03 1014.20 1014.03 1014.03 1014.70 1014.91 1015.08 1015.02 1015.23 1015.43 1016.03 1016.22 1015.99 1016.10 1016.04 1016.50 1017.64 1017.89 1018.04 1018.00 1018.58 1018.29 1017.20 1017.22 1017.81 1018.87 1019.77 1020.67 1021.57 1022.74 1023.84 1024.94
1015.79 1016.04 1015.59 1015.62 1016.10 1016.84 1016.90 1015.87 1014.87 1014.25 1013.71 1013.54 1013.28 1013.34 1013.54 1013.93 1014.08 1014.56 1014.86 1014.37 1014.46 1014.58 1014.66 1015.66 1016.32 1016.34 1016.45 1016.41 1017.01 1017.06 1017.54 1018.21 1018.44 1018.33 1017.83 1017.05 1017.48 1017.34 1018.50 1019.08 1020.31 1021.24 1022.66 1024.00 1025.12
1015.77 1015.89 1015.12 1015.44 1016.17 1016.75 1016.08 1015.22 1014.49 1014.05 1013.85 1013.68 1013.38 1013.33 1013.36 1013.61 1013.86 1014.45 1014.76 1014.69 1014.71 1015.03 1015.18 1015.69 1016.08 1017.07 1016.85 1016.79 1016.86 1017.62 1017.80 1018.30 1018.40 1018.42 1018.15 1017.78 1017.24 1017.23 1018.28 1018.94 1019.65 1020.86 1022.34 1023.83 1024.88
1015.33 1015.52 1015.13 1015.15 1016.07 1016.27 1015.82 1014.94 1014.44 1014.16 1013.91 1013.79 1013.66 1013.23 1013.15 1013.52 1013.80 1014.38 1014.81 1014.95 1015.02 1014.95 1015.60 1015.92 1016.32 1016.90 1017.09 1017.33 1017.41 1017.35 1017.47 1017.85 1018.16 1018.20 1018.40 1018.69 1017.15 1017.28 1018.46 1019.14 1019.68 1020.77 1022.16 1023.62 1024.87
1014.77 1015.14 1015.15 1015.01 1014.66 1015.36 1015.41 1015.08 1014.62 1014.40 1014.07 1013.98 1013.81 1013.49 1013.31 1013.42 1014.03 1014.47 1014.92 1015.55 1015.39 1015.50 1015.76 1016.02 1016.57 1017.25 1017.57 1017.99 1017.96 1017.86 1017.78 1017.96 1018.13 1018.29 1017.67 1018.51 1016.99 1017.70 1018.66 1019.26 1019.94 1020.87 1022.18 1023.57 1024.92
1014.61 1014.93 1015.07 1015.02 1014.49 1014.36 1014.41 1014.19 1014.40 1014.47 1014.27 1013.95 1013.81 1013.65 1013.72 1013.82 1014.02 1014.85 1015.39 1015.87 1015.88 1016.00 1016.16 1016.26 1016.91 1017.29 1017.34 1017.15 1017.60 1018.18 1017.99 1018.15 1018.34 1018.24 1017.73 1016.40 1017.02 1016.89 1017.69 1018.58 1019.61 1020.81 1022.16 1023.45 1024.71
1013.61 1013.55 1013.48 1014.20 1014.19 1013.66 1013.75 1013.72 1014.16 1014.18 1014.29 1014.23 1014.09 1013.67 1013.91 1014.35 1014.68 1015.15 1015.61 1015.97 1016.45 1016.50 1016.63 1016.69 1017.32 1017.95 1017.99 1017.79 1017.85 1017.95 1018.19 1018.15 1018.27 1017.64 1017.89 1015.47 1016.49 1016.61 1017.19 1017.95 1018.66 1020.16 1022.08 1023.44 1024.63
1012.63 1013.36 1013.48 1013.36 1013.57 1014.16 1013.67 1013.43 1013.25 1013.70 1013.99 1014.13 1014.06 1013.96 1014.22 1014.48 1014.61 1015.25 1015.66 1016.17 1016.26 1016.87 1017.14 1017.57 1018.19 1018.66 1018.61 1018.22 1018.04 1018.07 1017.87 1017.99 1017.81 1017.25 1017.37 1016.86 1016.26 1016.46 1016.81 1017.95 1019.05 1020.18 1021.70 1023.08 1024.30
1011.99 1012.29 1012.41 1012.80 1012.95 1013.72 1013.17 1012.85 1013.35 1013.69 1014.18 1013.85 1013.95 1014.24 1014.64 1014.79 1014.92 1015.30 1015.45 1015.76 1016.06 1016.52 1017.37 1018.01 1018.56 1018.91 1018.53 1018.62 1018.30 1017.75 1016.77 1016.92 1016.68 1016.93 1016.76 1016.53 1015.68 1016.55 1017.54 1018.64 1019.55 1020.54 1021.64 1022.81 1023.98
Wind_Speed
8 7 7 6 6 6 5 6 8 10 13 15 17 18 20 20 15 1 2 1 3 9 6 5 4 5 3 4 3 2 3 3 2 2 2 6 7 2 0 2 2 2 3 9 12
9 8 8 7 6 6 5 6 8 9 11 15 17 19 20 19 4 3 1 1 4 8 4 6 5 5 4 3 3 3 2 3 2 1 2 4 2 7 5 4 1 2 9 14 17
9 9 8 8 8 6 6 5 7 8 10 13 17 20 20 10 4 0 2 2 5 5 1 1 1 3 4 3 4 1 2 5 4 3 3 2 4 2 3 3 5 3 10 15 17
10 9 9 8 8 7 5 5 5 6 9 12 16 19 22 2 6 2 2 3 5 3 2 3 4 3 3 3 3 1 2 0 1 4 2 4 2 3 5 10 11 15 13 14 18
9 8 9 8 8 8 6 5 4 4 7 10 14 19 7 4 7 1 1 4 2 3 4 3 4 2 3 2 2 1 0 4 7 9 6 1 6 3 9 11 14 16 18 17 15
7 7 8 9 9 10 7 6 5 2 4 7 11 12 3 6 1 3 4 3 3 4 3 4 2 0 4 3 2 1 3 6 5 7 3 1 0 4 7 10 16 17 17 15 16
4 5 5 7 8 10 8 7 5 2 2 4 8 2 0 13 2 3 3 2 1 2 1 1 1 1 2 2 2 1 4 6 4 3 4 2 4 6 7 11 16 15 14 14 14
9 8 8 6 8 8 7 7 5 6 2 3 6 1 8 2 1 7 1 1 3 2 1 0 1 3 2 3 4 2 2 1 3 6 4 2 3 9 5 9 13 12 11 11 13
8 9 9 9 5 5 3 5 8 6 2 3 3 2 10 4 1 2 5 3 4 2 2 3 3 3 3 3 2 5 2 1 3 5 5 8 3 4 5 8 11 9 8 8 8
10 11 11 10 8 3 4 5 5 3 3 3 1 3 5 3 2 1 2 3 2 4 3 5 4 3 2 3 3 2 2 0 4 1 6 9 11 6 5 6 7 7 6 7 9
8 9 9 8 5 12 7 4 2 2 1 7 3 4 2 6 2 1 2 4 2 4 3 2 1 4 4 3 3 4 2 3 4 6 6 8 8 2 5 6 5 4 5 6 7
10 9 8 9 11 11 3 3 1 1 5 12 12 9 8 1 4 2 4 5 3 4 4 3 5 6 5 5 4 2 1 5 6 5 7 9 9 3 2 2 1 3 4 6 7
6 11 10 7 13 6 3 3 2 3 3 6 9 8 7 11 10 13 8 4 4 4 6 5 3 7 7 4 4 3 5 4 6 3 4 6 8 5 2 4 5 4 3 3 5
3 5 8 15 6 5 3 4 2 1 4 7 4 6 5 7 7 8 12 6 4 8 6 5 2 5 3 5 6 5 10 8 5 3 4 3 9 5 3 7 9 6 4 2 4
1 2 14 10 7 5 4 7 3 4 4 2 4 1 5 10 1 3 1 6 16 8 5 3 4 4 5 6 10 5 4 4 3 3 2 3 6 4 2 7 13 9 5 2 3
4 4 16 3 3 2 5 7 4 3 11 2 5 6 7 4 1 4 4 4 3 5 1 4 2 4 5 4 6 7 3 4 3 1 7 9 10 3 5 4 1 7 6 2 3
6 5 9 5 4 6 6 4 3 7 3 5 4 5 4 6 3 4 8 6 6 8 9 3 8 3 3 3 1 3 3 3 3 3 5 3 5 12 5 6 3 7 8 4 1
6 5 5 2 5 7 4 3 7 5 5 2 4 5 5 7 3 3 8 5 3 2 4 6 3 8 4 13 4 5 6 5 5 4 5 3 8 4 1 2 3 4 6 4 1
6 2 3 4 6 3 8 9 7 7 5 5 3 4 4 3 5 3 8 7 8 9 5 5 3 1 1 3 4 4 5 0 2 1 3 5 5 5 2 6 7 8 7 4 1
3 3 3 8 8 4 8 11 6 4 1 2 7 4 7 6 6 6 7 4 4 9 2 6 3 1 2 3 4 2 8 3 1 4 6 7 11 12 5 10 12 13 10 5 1
3 3 1 10 5 4 11 12 5 4 1 1 3 4 4 6 6 6 5 1 1 4 3 5 2 2 2 5 7 3 3 3 1 3 5 8 10 5 4 3 8 10 10 8 4
2 5 3 7 8 4 9 14 3 4 3 2 1 0 4 5 4 5 6 1 3 5 7 4 4 5 4 1 2 1 5 7 4 7 4 3 14 2 3 5 6 9 10 8 6
3 1 1 4 11 6 9 16 1 4 5 6 4 3 1 4 4 3 4 2 3 3 5 6 3 3 2 1 0 5 4 2 3 2 12 8 12 5 4 5 5 10 10 9 7
3 5 3 3 2 15 12 12 13 5 2 3 4 3 2 2 2 4 2 2 2 2 4 5 3 4 7 3 4 4 5 6 6 5 8 20 19 14 10 12 11 11 11 10 8
6 4 3 10 13 12 12 5 13 10 8 7 4 5 6 5 5 5 2 2 1 1 2 4 6 3 3 2 3 1 5 8 11 14 12 26 18 20 11 10 13 14 13 11 9
6 5 0 3 14 18 11 14 19 16 9 6 3 6 4 5 4 5 4 3 4 1 2 2 4 2 2 2 1 7 8 10 13 18 13 16 25 18 13 2 6 13 15 12 10
3 1 3 5 12 11 18 13 9 11 2 6 7 4 3 3 3 3 6 3 3 7 4 4 6 2 5 0 2 12 11 17 8 9 9 10 14 3 4 6 8 13 14 13 12
Wind_Direction
241 241 249 258 279 296 318 335 343 346 347 346 347 342 341 342 323 322 31 351 315 319 320 294 359 7 39 74 53 121 78 109 152 181 33 343 346 345 149 348 22 55 93 45 58
235 241 246 255 270 287 307 330 339 346 349 345 344 339 337 343 345 311 46 32 342 342 25 23 4 0 56 35 37 68 94 138 168 270 353 318 339 338 342 12 266 25 72 54 55
231 237 243 247 261 272 293 316 338 343 350 348 343 336 334 332 328 40 86 47 344 353 15 53 347 44 61 11 23 73 133 172 170 160 320 299 301 337 341 288 17 60 64 49 57
237 241 247 247 254 267 278 296 329 338 347 353 345 333 327 322 305 347 75 16 334 334 33 20 33 52 80 76 21 94 78 123 246 171 277 254 274 260 210 67 80 82 81 68 60
231 242 255 260 261 265 264 275 291 322 350 352 350 336 356 360 256 64 43 10 24 33 42 40 42 110 106 71 9 95 26 296 285 285 245 191 249 243 48 75 80 83 75 72 68
230 229 245 253 258 260 260 254 262 295 345 352 353 335 32 292 50 53 12 355 46 52 16 38 102 124 97 100 89 309 283 286 285 287 260 283 257 155 69 104 82 77 74 68 62
280 272 255 265 266 260 255 252 239 225 277 345 356 45 93 245 32 340 357 27 326 98 42 88 129 88 135 77 1 15 329 337 19 349 26 231 75 34 109 101 91 86 81 71 56
273 268 274 266 281 271 251 242 203 196 270 330 8 15 251 209 281 299 165 306 262 261 231 350 117 102 59 100 34 44 60 15 352 344 15 280 168 43 129 106 96 91 81 70 57
258 264 268 275 259 282 261 219 168 166 202 319 58 317 267 305 279 298 186 186 129 91 33 66 65 68 49 82 9 13 176 307 309 51 11 31 284 53 112 111 107 98 85 72 56
238 249 254 252 252 301 131 126 133 143 173 110 29 321 271 329 316 103 156 144 123 122 68 43 55 69 81 133 257 171 160 181 263 347 341 314 273 118 80 115 108 98 81 61 46
234 238 235 240 194 129 125 108 115 216 221 210 191 273 258 312 293 83 152 116 92 61 150 15 90 244 238 186 130 117 131 236 267 272 312 273 282 153 118 114 117 90 62 46 37
239 221 219 220 158 163 138 177 280 301 296 233 246 258 264 52 320 325 137 172 161 182 129 88 231 240 159 163 203 149 188 250 274 263 209 281 275 188 207 82 116 107 59 31 14
263 211 196 188 160 141 218 181 188 202 275 263 210 210 208 185 219 243 163 136 151 179 197 214 229 116 154 172 202 206 216 215 245 313 231 295 262 207 154 158 148 128 115 66 25
296 222 141 136 142 153 199 179 95 266 300 263 234 256 138 136 257 232 197 147 168 217 175 244 252 172 186 219 175 251 218 230 243 217 262 335 291 220 211 221 218 198 188 97 30
229 241 155 163 134 163 200 141 117 55 270 185 162 114 154 173 121 32 153 174 214 170 159 241 176 160 191 226 177 231 176 175 165 199 264 202 259 107 170 244 233 214 200 145 42
199 198 150 141 111 210 127 114 74 95 244 180 138 156 144 216 353 126 119 70 144 144 175 231 247 204 180 144 172 145 105 66 73 180 254 227 227 295 195 212 185 197 188 147 24
209 184 174 147 198 149 135 97 143 211 16 190 182 159 164 161 203 148 153 153 156 164 209 194 226 221 156 160 122 112 107 301 257 200 269 136 226 267 234 214 242 202 179 167 51
225 194 220 194 136 144 109 128 200 197 205 311 131 123 177 151 201 132 141 162 200 138 132 184 207 177 177 213 185 177 183 191 246 243 288 165 244 249 219 150 118 127 157 160 63
200 204 215 186 138 129 161 190 213 184 191 190 125 146 201 191 145 154 175 189 199 184 168 145 261 167 150 138 157 154 192 143 249 90 278 253 261 240 190 216 208 200 191 189 76
156 199 227 151 141 145 192 210 223 202 226 208 194 168 181 185 149 177 182 190 207 189 167 186 143 358 120 108 70 181 141 143 92 253 264 272 284 265 231 244 224 223 214 188 142
170 196 198 139 151 184 203 219 198 197 137 6 205 154 183 168 179 184 185 99 359 141 94 146 147 166 142 209 179 146 185 77 176 202 268 286 275 187 220 249 228 217 196 184 173
189 178 173 167 178 179 198 222 202 188 173 254 323 129 157 152 152 187 205 86 334 153 161 184 133 180 185 73 340 280 204 179 204 238 232 273 265 132 232 268 222 186 177 168 162
195 139 299 179 180 178 195 218 202 202 178 177 220 236 200 159 123 157 143 66 19 138 154 186 176 165 210 128 25 232 190 140 97 61 251 257 263 148 172 198 207 182 176 169 160
135 184 147 190 217 206 192 198 213 198 265 180 201 150 122 180 15 145 126 32 24 112 96 109 127 188 248 184 132 204 196 194 202 241 271 251 277 267 259 238 207 198 181 170 165
173 207 203 191 198 217 194 179 196 201 204 185 205 192 165 189 147 161 154 109 51 127 78 155 193 149 226 133 167 225 224 194 210 237 242 274 270 284 278 255 225 196 169 167 168
157 174 132 175 191 201 200 210 206 200 169 189 179 183 176 172 178 170 124 192 210 85 98 18 140 129 286 228 220 266 240 232 229 249 263 265 279 276 291 259 179 177 167 170 169
148 86 136 160 172 184 215 211 184 179 202 156 167 124 172 214 173 196 200 194 177 159 148 138 143 120 270 20 79 271 230 221 236 237 233 244 265 226 249 237 194 171 171 168 167